CZ-4C DEB

Satellite information

Favourite Embed

Satellite Type and Status

DEBRISIN ORBIT

Key statistics

Satellite CZ-4C DEB at a glance.

Uptime

6512

Days in orbit

Revolutions

≈ 14.5

Per day

Orbit

SSO

Sun Synchronous Orbit

Inclination

97.8

Latest

Satellite identification and parameters

Extended collection of information and parameters for CZ-4C DEB.

Object identification

Identified? True

Debris? True

Object name: CZ-4C DEB

International designator: 2007-055D

Object number (NORAD): 35249

Object ID (CCSDS): 35249

Country: PEOPLES REPUBLIC OF CHINA (PRC)

Current information (Y/N): Y

RCS size: SMALL

Orbital parameters

Period: 99.452 minutes

Inclination: 97.7612 deg

SMA: 7110.557 km

Apoapsis: 879.377 km

Periapsis: 585.468 km

RAAN: 82.145 deg

Eccentricy: 0.02066711

Argument of periapsis: 8.8383 deg

Mean anomaly: 351.6361 deg

Mean motion: 14.47929086 rev/day

Mean motion (dot): 0.0000282 rev/day2

B* drag term: 0.00059053016 1/REarth

Two-line elements (TLE)

Creation date: Sept. 8, 2025, 6:18 p.m.

Reference frame: TEME

Reference center: EARTH

Epoch: Sept. 8, 2025, 8:17 a.m. UTC

TLE line 0: 0 CZ-4C DEB

TLE line 1: 1 35249U 07055D 25251.34541839 .00002820 00000-0 59053-3 0 9999

TLE line 2: 2 35249 97.7612 82.1450 0206671 8.8383 351.6361 14.47929086929497

Live tracking on map

Real-time ground track for satellite CZ-4C DEB.

In-orbit conjunctions

A list of the most updated potential collisions computed for object CZ-4C DEB.

Target Orbit TCA Probability of collision Miss distance Type
CZ-4 DEB SSO 2025-08-04 20:44:07 0.0001036703 118.0 (m) DEBRIS
COSMOS 1275 DEB LEO 2024-11-15 15:40:14 0.0001758745 150.0 (m) DEBRIS

Associated space launch

Chinese Earth observation satellite likely also used for military reconnaissance

CZ-4C DEB was lifted into orbit during the mission ‘Long March 4C | Yaogan Weixing 3’, on board a Long March 4C space rocket.

The launch took place on Nov. 11, 2007, 10:48 p.m. from Launch Complex 7.

For more information about the launch, click the button.

Launch to space Long March 4C | Yaogan Weixing 3
Long March 4C | Yaogan Weixing 3

Agency: N/A

Status: Launch Successful

Launch date: Nov. 11, 2007, 10:48 p.m. UTC

Rocket: Long March 4C

Launch pad: Launch Complex 7

Location: Taiyuan Satellite Launch Center, People's Republic of China

...

Latest news about this satellite

There are no fresh news available about this satellite. Check back as we update our databases every day.


Newsletter sign-up

Weekly statistics, charts and insights to help you stay on top of the space industry.